Weather History for Belize, Belize

Change the Weather History Date:

Tuesday, December 17, 2013

  Actual Average Record
Temperature  
Mean Temperature 74 °F -  
Max Temperature 78 °F - 86 °F (2005)
Min Temperature 70 °F 68 °F 62 °F (1997)
Cooling Degree Days 9    
Growing Degree Days 24 (Base 50)    
Moisture  
Dew Point 71 °F    
Average Humidity 92    
Maximum Humidity 97    
Minimum Humidity 79    
Precipitation  
Precipitation 0.04 in 0.20 in - ()
Sea Level Pressure  
Sea Level Pressure 30.08 in    
Wind  
Wind Speed 7 mph ()    
Max Wind Speed 12 mph    
Max Gust Speed -    
Visibility 8.0 miles    
Events Rain    
Averages and records for this station are not official NWS values.
T = Trace of Precipitation, MM = Missing Value Source: Averaged Metar Reports

Daily Weather History Graph

Daily Weather History Graph

Search for Another Location

Airport:

Trip Planner

Search our weather history database for the weather conditions in past years. The results will help you decide how hot, cold, wet, or windy it might be!

Date:

Astronomy

Dec. 17, 2013 Rise Set
Actual Time 6:17 AM CST 5:22 PM CST
Civil Twilight 5:53 AM CST 5:45 PM CST
Nautical Twilight 5:26 AM CST 6:12 PM CST
Astronomical Twilight 4:59 AM CST 6:39 PM CST
Moon 5:53 PM CST (12/17) 6:20 AM CST (12/17)
Length of Visible Light 11h 52m
Length of Day
11h 05m
Full, 100% of the Moon is Illuminated
Dec 17
Full
Dec 25
Last Quarter
Jan 1
New
Jan 7
First Quarter
Jan 15
Full

Hourly Weather History & Observations

Time (CST) Temp. Dew Point Humidity Pressure Visibility Wind Dir Wind Speed Gust Speed Precip Events Conditions
12:00 AM 72 °F 71 °F 94% 30.09 in 12 mi NNW 11.5 mph - -   Partly Cloudy
3:00 AM 71 °F 70 °F 95% 30.07 in 12 mi NW 11.5 mph - -   Mostly Cloudy
5:00 AM 71.6 °F 69.8 °F 94% 30.06 in 6.2 mi NW 11.5 mph - N/A   Mostly Cloudy
6:00 AM 71 °F 69 °F 91% 30.09 in 12 mi NW 9.2 mph - -   Mostly Cloudy
6:00 AM 71.6 °F 69.8 °F 94% 30.06 in 6.2 mi NW 9.2 mph - N/A   Mostly Cloudy
7:00 AM 71.6 °F 69.8 °F 94% 30.09 in 6.2 mi NNW 9.2 mph - N/A   Mostly Cloudy
8:00 AM 71.6 °F 69.8 °F 94% 30.12 in 6.2 mi NNW 6.9 mph - N/A   Mostly Cloudy
9:00 AM 72 °F 70 °F 91% 30.14 in 12 mi NNW 5.8 mph - -   Mostly Cloudy
9:00 AM 71.6 °F 69.8 °F 94% 30.13 in 6.2 mi NNW 5.8 mph - N/A   Mostly Cloudy
9:37 AM 71.6 °F 69.8 °F 94% 30.12 in 6.2 mi NW 9.2 mph - N/A   Mostly Cloudy
10:00 AM 71.6 °F 69.8 °F 94% 30.13 in 6.2 mi NW 9.2 mph - N/A   Mostly Cloudy
11:00 AM 73.4 °F 69.8 °F 88% 30.10 in 6.2 mi NNW 8.1 mph - N/A   Mostly Cloudy
12:00 PM 74 °F 71 °F 86% 30.09 in 12 mi NW 6.9 mph - -   Mostly Cloudy
12:00 PM 73.4 °F 71.6 °F 94% 30.08 in 6.2 mi NW 6.9 mph - N/A   Mostly Cloudy
1:00 PM 75.2 °F 71.6 °F 89% 30.06 in 6.2 mi NNW 6.9 mph - N/A   Mostly Cloudy
2:00 PM 75.2 °F 71.6 °F 89% 30.03 in 6.2 mi NW 5.8 mph - N/A   Mostly Cloudy
3:00 PM 78 °F 73 °F 79% 30.02 in 12 mi WNW 4.6 mph - -   Partly Cloudy
3:00 PM 78.8 °F 73.4 °F 83% 30.02 in 6.2 mi WNW 4.6 mph - N/A   Mostly Cloudy
4:00 PM 77.0 °F 73.4 °F 89% 3.00 in 6.2 mi WNW 3.5 mph - N/A Rain Light Rain Showers
5:00 PM 77.0 °F 73.4 °F 89% 30.03 in 6.2 mi West 3.5 mph - N/A   Mostly Cloudy
6:00 PM 74 °F 73 °F 96% 30.06 in 12 mi West 3.5 mph - -   Partly Cloudy
6:00 PM 75.2 °F 73.4 °F 94% 30.05 in 6.2 mi West 3.5 mph - N/A   Mostly Cloudy
7:00 PM 75.2 °F 73.4 °F 94% 30.07 in 6.2 mi Calm Calm - N/A   Mostly Cloudy
8:00 PM 75.2 °F 73.4 °F 94% 30.09 in 6.2 mi SW 2.3 mph - N/A   Mostly Cloudy
9:00 PM 73 °F 72 °F 97% 30.11 in 12 mi WNW 3.5 mph - -   Mostly Cloudy
9:00 PM 73.4 °F 71.6 °F 94% 30.11 in 6.2 mi WNW 3.5 mph - N/A   Mostly Cloudy